Dewpoint
72 73 73 74 76 76 75 75 74 74 73 74 75 75 75 75 77 77 75 75 72 68 67 70 72 71 70 72 70 70 68 68 66 67 68 68 66 67 69 68 70 73 72
70 72 73 73 73 74 74 74 74 74 74 74 76 74 74 75 77 75 74 75 71 69 70 70 72 73 70 71 71 68 69 69 68 67 68 69 68 69 68 67 69 73 74
69 71 71 72 73 72 73 73 74 73 74 75 74 73 75 76 76 75 75 74 71 71 71 72 73 72 71 70 69 68 69 70 71 70 69 70 71 70 66 68 69 71 74
69 68 69 71 70 69 69 70 70 72 73 74 73 73 75 75 75 75 75 74 72 71 73 72 73 73 72 71 71 70 72 71 71 71 70 69 70 71 70 69 68 69 69
67 67 69 69 69 70 71 70 71 72 73 74 75 75 75 75 76 72 73 73 73 73 73 73 74 73 72 72 72 71 73 71 70 67 66 65 67 68 67 69 68 69 70
68 70 70 70 68 70 74 76 75 75 75 75 74 74 73 75 70 70 70 70 70 70 71 73 73 73 73 70 70 70 71 71 70 67 65 64 64 70 70 70 69 67 66
71 70 70 70 72 76 76 75 73 71 70 68 67 68 67 70 69 69 70 68 67 67 68 69 71 70 70 71 70 68 68 68 69 69 66 65 65 67 70 70 67 66 66
71 71 71 75 76 75 73 71 69 67 66 66 66 66 66 67 68 68 68 65 64 64 63 64 64 62 66 70 70 70 70 70 69 68 67 66 66 66 68 69 71 68 68
71 73 76 76 73 73 69 66 66 65 65 66 66 66 64 65 65 65 66 63 63 61 62 61 61 60 63 64 66 68 68 67 67 67 66 66 65 65 67 71 71 69 69
73 76 75 73 71 70 67 66 66 66 67 68 65 66 66 66 64 64 63 62 62 61 61 60 61 58 59 59 59 61 62 66 67 67 66 65 66 67 66 68 69 68 66
74 73 72 70 68 66 66 67 67 68 68 68 68 67 67 67 67 63 62 62 62 61 61 60 60 57 55 55 56 56 58 61 62 63 64 64 65 65 68 70 70 70 69
72 70 68 66 65 68 67 67 67 68 68 68 66 66 63 62 60 58 57 59 61 61 61 62 58 54 52 53 53 56 57 58 58 61 62 62 62 62 64 66 69 70 71
70 68 68 67 66 66 66 66 68 68 66 65 60 57 56 58 58 57 57 56 58 57 58 59 55 53 52 51 52 54 54 50 53 56 56 56 56 56 57 58 60 67 70
69 68 66 65 66 67 68 68 65 64 63 59 59 57 57 58 58 59 59 57 57 56 56 53 53 54 54 54 54 52 51 50 50 52 54 56 57 59 59 59 57 58 67
68 66 64 65 64 65 67 67 65 64 61 58 57 57 57 57 52 49 49 50 50 50 49 51 51 52 52 52 52 53 53 53 51 50 53 57 57 57 57 57 57 59 63
65 65 61 57 60 60 58 57 57 53 51 49 48 48 52 49 47 45 44 45 46 47 50 51 51 51 52 53 53 54 54 55 53 52 52 53 54 56 57 57 57 57 57
59 60 62 60 59 58 59 57 55 55 53 51 46 47 47 46 45 44 44 45 46 48 50 51 51 52 53 53 53 53 54 56 56 55 54 53 53 51 54 56 55 55 58
62 58 60 61 59 57 56 56 56 54 53 52 48 47 45 45 45 44 44 46 48 48 49 49 50 51 51 52 52 52 52 55 56 57 58 58 58 59 57 55 56 54 56
62 58 57 57 55 54 55 54 52 51 50 49 49 48 47 45 44 44 45 48 48 48 48 49 49 49 49 49 50 51 52 52 53 53 53 55 56 57 57 58 57 53 53
56 56 55 53 52 51 50 50 49 48 48 47 46 46 46 47 46 47 47 46 46 45 45 46 46 46 46 47 48 48 50 50 51 51 52 53 55 56 55 57 59 60 60
53 51 53 50 50 48 48 48 47 47 46 46 46 46 46 47 46 46 46 45 45 46 45 45 46 46 47 47 47 48 48 48 50 51 51 51 51 50 53 53 56 59 60
49 49 50 50 48 47 47 46 46 46 46 46 46 47 44 46 46 46 46 46 47 47 47 47 46 47 48 49 49 49 49 50 52 52 52 51 51 51 52 54 56 57 59
48 49 49 48 47 47 46 46 46 46 46 47 47 45 45 46 46 46 46 47 48 48 48 48 48 47 48 48 50 50 50 51 53 54 53 52 52 53 53 53 54 57 59
50 48 47 46 45 45 45 46 46 45 46 46 46 45 45 45 45 46 46 47 48 48 49 49 48 48 48 47 47 48 47 48 46 48 52 54 54 53 55 55 55 59 60
49 47 46 45 45 45 46 46 46 46 46 46 46 45 46 45 45 45 46 46 46 47 47 48 48 48 48 47 45 43 40 35 38 40 46 51 53 53 54 56 59 60 59
48 47 46 45 45 45 45 46 46 46 46 46 45 46 45 44 44 46 46 45 44 44 44 45 46 45 46 45 41 36 33 34 39 37 44 50 52 54 56 59 60 60 61
Lifted_Index
-6 -6 -7 -7 -7 -7 -7 -7 -7 -7 -7 -7 -8 -8 -8 -8 -9 -9 -9 -8 -6 -2 -1 -3 -6 -7 -6 -6 -5 -4 -3 -3 -3 -2 -3 -3 -3 -3 -2 -1 -2 -3 -4
-6 -6 -7 -7 -7 -7 -7 -7 -7 -7 -7 -7 -8 -8 -8 -8 -9 -9 -8 -8 -6 -4 -3 -4 -5 -6 -6 -6 -5 -4 -3 -3 -3 -4 -4 -4 -4 -4 -3 -2 -2 -3 -4
-6 -6 -7 -7 -7 -7 -7 -7 -7 -7 -7 -7 -8 -7 -8 -8 -8 -8 -8 -7 -6 -5 -4 -5 -6 -6 -6 -6 -5 -5 -4 -4 -5 -5 -5 -5 -5 -4 -4 -3 -3 -3 -4
-6 -6 -6 -7 -7 -6 -6 -6 -6 -7 -7 -8 -8 -8 -8 -8 -8 -8 -8 -7 -7 -6 -6 -6 -6 -7 -6 -6 -6 -6 -5 -6 -6 -6 -6 -5 -4 -4 -4 -4 -3 -3 -3
-6 -6 -6 -6 -6 -6 -6 -7 -7 -7 -8 -8 -8 -8 -8 -8 -8 -8 -7 -6 -6 -6 -6 -6 -6 -6 -6 -6 -6 -6 -6 -6 -6 -6 -6 -4 -4 -4 -5 -4 -4 -4 -4
-6 -6 -6 -6 -6 -7 -8 -8 -8 -8 -8 -8 -8 -7 -7 -7 -7 -6 -5 -5 -4 -4 -4 -5 -6 -6 -6 -6 -6 -6 -6 -6 -6 -6 -5 -3 -3 -4 -5 -5 -5 -5 -5
-6 -6 -6 -6 -7 -8 -9 -9 -8 -8 -7 -6 -5 -4 -4 -4 -5 -4 -3 -2 -1 -1 -1 -2 -3 -4 -5 -5 -5 -5 -5 -5 -5 -5 -4 -3 -3 -3 -4 -5 -6 -6 -5
-6 -7 -7 -8 -9 -9 -9 -8 -7 -5 -4 -3 -3 -2 -2 -2 -2 -2 -2 -0 1 1 1 1 1 -1 -2 -3 -3 -4 -5 -5 -5 -4 -3 -3 -3 -3 -4 -5 -6 -6 -6
-7 -8 -9 -9 -9 -9 -8 -6 -4 -3 -3 -3 -2 -2 -1 -1 -1 -1 -0 1 2 2 2 3 3 3 2 1 0 -1 -3 -4 -4 -4 -3 -3 -2 -3 -3 -4 -5 -6 -6
-8 -9 -10 -9 -8 -7 -5 -4 -3 -3 -3 -3 -3 -2 -2 -1 -1 -0 0 1 1 2 2 2 3 3 3 3 3 2 1 -1 -2 -2 -2 -2 -2 -2 -3 -4 -5 -5 -5
-9 -9 -9 -8 -6 -5 -4 -3 -3 -4 -4 -4 -3 -2 -2 -1 -0 1 1 1 1 1 1 1 1 1 2 2 3 3 3 2 1 -0 -1 -1 -1 -2 -2 -3 -4 -5 -5
-9 -8 -7 -5 -4 -3 -3 -3 -4 -4 -4 -3 -2 -1 -0 1 2 2 2 2 1 1 1 1 1 1 1 1 2 3 3 3 3 2 1 1 1 0 -0 -2 -3 -4 -4
-7 -6 -5 -4 -3 -3 -3 -4 -4 -4 -3 -2 -1 1 2 2 3 3 2 2 2 2 2 2 3 3 3 2 2 3 4 5 5 4 3 3 2 2 2 1 -1 -2 -3
-4 -4 -4 -4 -3 -3 -4 -4 -4 -3 -2 -0 1 2 2 3 2 2 2 2 3 3 4 4 5 5 5 4 4 4 4 5 5 5 4 3 3 2 2 2 1 -0 -2
-3 -3 -3 -2 -2 -3 -3 -3 -2 -2 -1 0 1 2 3 3 3 2 2 2 3 4 5 5 6 6 6 5 5 4 3 3 4 4 4 3 2 2 2 2 1 1 0
-1 -1 -1 -1 -1 -1 -1 -1 -0 -0 0 1 2 3 3 4 4 3 3 4 4 5 5 5 6 6 5 5 4 4 3 2 2 2 3 2 2 2 2 2 2 1 1
1 0 -0 -0 0 0 1 1 1 1 1 2 3 3 4 4 4 4 4 5 5 5 6 6 5 5 5 5 5 4 3 3 2 1 1 2 2 2 2 2 2 2 2
-0 -0 -0 0 0 1 1 1 2 2 3 4 4 5 4 4 4 5 5 5 5 6 6 6 5 5 5 5 5 5 5 4 3 2 2 1 1 1 1 2 2 2 2
-0 0 1 1 2 2 3 3 4 5 5 6 6 6 5 5 5 5 5 5 5 5 6 6 6 6 6 6 6 6 6 5 4 3 3 2 2 1 1 1 1 2 2
1 2 2 3 4 5 6 6 7 7 8 8 7 7 6 5 5 4 4 5 5 5 6 6 7 8 8 8 8 8 7 7 6 5 4 4 3 3 2 2 2 2 2
3 4 5 6 7 8 8 8 9 9 9 9 8 7 7 6 5 4 5 5 6 6 6 7 8 8 8 8 8 8 8 8 7 7 6 6 5 5 4 4 3 2 2
6 6 7 8 9 9 8 8 8 9 9 8 8 7 7 6 6 6 6 7 7 8 8 8 8 8 8 9 9 8 8 9 9 8 8 7 6 6 6 5 4 3 2
7 8 9 9 9 8 8 7 7 8 8 8 8 8 7 7 7 7 8 8 9 9 9 9 9 8 8 8 8 8 8 8 8 8 8 7 7 7 6 6 5 3 3
8 9 9 9 8 7 7 7 7 8 8 8 9 9 9 8 9 9 9 10 10 10 10 10 9 9 9 8 8 8 8 7 7 6 6 6 6 6 6 5 4 3 2
9 10 9 8 7 7 6 7 7 8 9 9 10 10 10 10 10 11 11 11 11 11 11 11 10 10 9 9 8 8 7 7 5 4 4 4 4 4 4 3 2 2 2
10 10 9 8 7 6 6 6 7 8 9 10 11 11 11 11 12 12 12 12 12 12 12 12 11 11 10 10 9 8 7 6 5 3 3 3 3 3 2 2 1 1 1